Location: *
(44.1392°N, 4.8079°E)
Time: 17:32:50
(UTC+00:00)

BREEZE-M DEB (TANK) - Visible Passes

Search period start: 21 October 2021 00:00
Search period end: 31 October 2021 00:00
Orbit: 355 x 16547 km, 49.4° (Epoch: 20 October)

Date Brightness Start Highest point End Pass type
(mag) Time Alt. Az. Time Alt. Az. Time Alt. Az.
21 Oct 9.0 02:57:59 10° SSE 04:55:19 43° ESE 05:32:20 10° ENE visible
22 Oct 8.5 03:46:32 10° S 06:00:52 58° SE 06:34:10 10° ENE visible
23 Oct 8.1 04:44:18 10° S 07:07:33 72° SE 07:35:06 10° ENE visible
24 Oct 9.7 01:35:08 10° ESE 02:38:28 20° E 03:11:26 10° ENE visible
24 Oct 7.7 05:50:09 10° SSW 08:13:59 85° SSE 08:35:34 10° ENE visible
25 Oct 9.4 01:58:24 10° SE 03:39:35 34° ESE 04:18:36 10° ENE visible
26 Oct 9.0 02:38:21 10° SSE 04:43:26 48° ESE 05:21:42 10° ENE visible
27 Oct 8.5 03:29:41 10° S 05:49:28 62° SE 06:23:15 10° ENE visible
28 Oct 9.8 01:05:09 10° E 01:26:46 12° E 01:43:30 10° ENE visible
28 Oct 8.1 04:29:21 10° SSW 06:56:29 76° SE 07:24:04 10° ENE visible
29 Oct 9.6 01:07:11 10° SE 02:25:24 24° E 03:02:44 10° ENE visible
29 Oct 7.7 05:36:51 10° SSW 08:03:10 88° SSE 08:24:31 10° ENE visible
30 Oct 9.3 01:36:01 10° SE 03:27:00 38° ESE 04:08:12 10° ENE visible
